DW8162 Weather Reports


time (UTC)temp
F
wind
direction
speed
knots
gust
knots
rain 1hr
in
rain 24hr
in
rain mn
in
humidity
%
barometer
mb
20260505205441 83 146 3.5 10.4 0.00 0.00 0.00 35 1006.4
20260505192439 83 256 7.0 9.6 0.00 0.00 0.00 35 1006.9
20260505185438 83 200 4.3 7.8 0.00 0.00 0.00 34 1007.2
20260505182437 83 277 0.9 7.8 0.00 0.00 0.00 35 1007.9
20260505172435 81 283 0.0 7.0 0.00 0.00 0.00 39 1008.3
20260505162434 80 247 0.9 5.2 0.00 0.00 0.00 43 1009.4
20260505152432 77 183 2.6 10.4 0.00 0.00 0.00 46 1009.7
20260505122427 62 168 0.0 0.0 0.00 0.00 0.00 74 1010.7
20260505115426 58 168 0.0 0.0 0.00 0.00 0.00 82 1010.4
20260505095422 49 167 0.0 0.0 0.00 0.00 0.00 89 1009.3
20260505092421 50 168 0.0 0.0 0.00 0.00 0.00 89 1009.4
20260505085420 50 167 0.0 0.0 0.00 0.00 0.00 89 1009.4
20260505082420 51 168 0.0 0.0 0.00 0.00 0.00 88 1009.3
20260505075418 53 168 0.0 0.0 0.00 0.00 0.00 87 1009.2
20260505072418 54 168 0.0 0.0 0.00 0.00 0.00 86 1009.1
20260505065417 55 168 0.0 0.0 0.00 0.00 0.00 85 1009.0
20260505062416 56 168 0.0 0.0 0.00 0.00 0.00 83 1009.1
20260505055446 57 168 0.0 0.0 0.00 0.00 0.00 79 1009.3
20260505052414 58 168 0.0 0.0 0.00 0.00 0.00 71 1009.4
20260505035442 65 168 0.0 0.0 0.00 0.00 0.00 53 1009.1
20260505032441 65 167 0.0 0.0 0.00 0.00 0.00 51 1009.0
20260505015439 69 258 0.0 0.0 0.00 0.00 0.00 43 1009.0
20260505012438 70 186 2.6 6.1 0.00 0.00 0.00 42 1008.8
20260505005437 70 207 0.0 4.3 0.00 0.00 0.00 41 1008.5
20260505002436 70 217 0.9 2.6 0.00 0.00 0.00 41 1008.2
20260504235435 71 242 1.7 2.6 0.00 0.00 0.00 42 1008.2
20260504232434 72 157 5.2 10.4 0.00 0.00 0.00 41 1007.9
20260504225434 73 234 0.9 13.0 0.00 0.00 0.00 38 1007.7
20260504222433 74 211 1.7 4.3 0.00 0.00 0.00 38 1007.6
20260504212431 77 213 0.9 6.1 0.00 0.00 0.00 33 1007.6